• Join FlightAware (Why Join?)
  • Login
  • US Flag 
04:53PM EST


 

Airport Tracker/Info


-or-


 

Live Flight TrackerFlight Track Log ✈ AFL150 ✈ 11-Jul-2013 ✈ UUEE / SVO - MUHA / HAV

Flight Track Log - Related Links

Times and Time Zones

All times are in EDT time to prevent confusion due to time zone crossing. See the AFL150 flight status page for this flight to view local times or setup timezone preferences in your user account.

Time Position Orientation Groundspeed Altitude Reporting Facility
EDT Latitude Longitude Course Direction KTS MPH feet Rate Location/Type
06:13AM 55.9900 37.5440 75° East 207 238 3,200  Level FlightAware
06:13AM 56.0000 37.6110 75° East 228 262 4,300 1,740 Climbing FlightAware
06:14AM 56.0070 37.6580 75° East 236 272 5,100 2,040 Climbing FlightAware
06:14AM 56.0170 37.7120 72° East 233 268 6,200 1,500 Climbing FlightAware
06:17AM 56.1987 37.2778 261° West  Level Estimated
06:17AM 56.0540 37.4000 259° West 331 381 11,100  Level FlightAware
06:18AM 56.2744 37.0944 259° West  Level Estimated
06:18AM 56.0350 37.2400 258° West 354 407 12,900  Level FlightAware
06:19AM 56.0210 37.1140 259° West 371 427 14,300 2,040 Climbing FlightAware
06:20AM 56.0040 36.9760 258° West 380 437 15,900 2,100 Climbing FlightAware
06:20AM 55.9900 36.8510 259° West 385 443 17,300 2,040 Climbing FlightAware
06:21AM 55.9770 36.7100 261° West 389 448 18,800 1,800 Climbing FlightAware
06:22AM 55.9700 36.6020 263° West 396 456 19,800 1,740 Climbing FlightAware
06:22AM 55.9600 36.4670 263° West 404 465 21,000 1,920 Climbing FlightAware
06:23AM 55.9500 36.3340 262° West 401 461 22,400 2,160 Climbing FlightAware
06:24AM 55.9390 36.1900 262° West 390 449 24,100 1,800 Climbing FlightAware
06:24AM 55.9300 36.0680 263° West 396 456 25,000 1,320 Climbing FlightAware
06:25AM 55.9200 35.9290 263° West 400 460 26,000 1,260 Climbing FlightAware
06:26AM 55.9090 35.7920 262° West 405 466 26,800 1,200 Climbing FlightAware
06:27AM 55.8970 35.6380 262° West 411 473 27,700 1,080 Climbing FlightAware
06:27AM 55.8860 35.5010 262° West 416 479 28,400 1,020 Climbing FlightAware
06:28AM 55.8750 35.3670 262° West 420 483 29,100 960 Climbing FlightAware
06:29AM 55.8640 35.2280 262° West 424 488 29,700 900 Climbing FlightAware
06:29AM 55.8510 35.0740 262° West 428 493 30,400 660 Climbing FlightAware
06:30AM 55.8380 34.9060 262° West 437 503 30,900 540 Climbing FlightAware
06:31AM 55.8370 34.6990 270° West 453 521 31,400 540 Climbing FlightAware
06:32AM 55.8390 34.5650 272° West 460 529 31,700 600 Climbing FlightAware
06:32AM 55.8410 34.4220 271° West 462 532 32,200 780 Climbing FlightAware
06:33AM 55.8430 34.2600 271° West 462 532 32,800 900 Climbing FlightAware
06:33AM 55.8440 34.1730 271° West 461 531 33,200 840 Climbing FlightAware
06:34AM 55.8470 34.0070 272° West 461 531 33,800 540 Climbing FlightAware
06:35AM 55.8480 33.8550 271° West 462 532 34,000 120 Climbing FlightAware
06:36AM 55.8500 33.6870 271° West 463 533 34,000  Level FlightAware
06:36AM 55.8510 33.5210 271° West 462 532 34,000  Level FlightAware
06:37AM 55.8520 33.3690 271° West 461 531 34,000  Level FlightAware
06:38AM 55.8530 33.2040 271° West 461 531 34,000  Level FlightAware
06:38AM 55.8500 33.0580 268° West 458 527 34,000  Level FlightAware
06:39AM 55.8320 32.8930 259° West 455 524 34,000  Level FlightAware
06:40AM 55.8030 32.7520 250° West 452 520 34,000  Level FlightAware
06:40AM 55.7640 32.6040 245° Southwest 453 521 34,000  Level FlightAware
06:41AM 55.7250 32.4550 245° Southwest 453 521 34,000  Level FlightAware
06:42AM 55.6880 32.3160 245° Southwest 454 522 34,000  Level FlightAware
06:42AM 55.6550 32.1970 244° Southwest 455 524 34,000  Level FlightAware
06:43AM 55.6020 32.0010 244° Southwest 453 521 34,000  Level FlightAware
06:44AM 55.5490 31.8100 244° Southwest 453 521 34,000  Level FlightAware
06:45AM 55.5120 31.6790 244° Southwest 454 522 34,000  Level FlightAware
06:46AM 55.4710 31.5320 244° Southwest 453 521 34,000  Level FlightAware
06:47AM 55.4300 31.3890 243° Southwest 453 521 34,000  Level FlightAware
06:47AM 55.4010 31.2860 244° Southwest 453 521 34,000  Level FlightAware
06:48AM 55.3710 31.1850 242° Southwest 453 521 34,000  Level FlightAware
06:48AM 55.3420 31.0850 243° Southwest 453 521 34,000  Level FlightAware
06:49AM 55.3030 30.9510 243° Southwest 453 521 34,000  Level FlightAware
06:50AM 55.2740 30.8500 243° Southwest 453 521 34,000  Level FlightAware
06:51AM 55.2350 30.7170 243° Southwest 453 521 34,000  Level FlightAware
06:51AM 55.2060 30.6170 243° Southwest 453 521 34,000  Level FlightAware
06:52AM 55.1670 30.4830 243° Southwest 453 521 34,000  Level FlightAware
06:53AM 55.1380 30.3830 243° Southwest 453 521 34,000  Level FlightAware
06:53AM 55.1090 30.2830 243° Southwest 453 521 34,000  Level FlightAware
06:54AM 55.0700 30.1500 243° Southwest 453 521 34,000  Level FlightAware
06:55AM 55.0410 30.0500 243° Southwest 453 521 34,000  Level FlightAware
06:55AM 55.0010 29.9120 243° Southwest 453 521 34,000  Level FlightAware
06:56AM 54.9720 29.8120 243° Southwest 453 521 34,000  Level FlightAware
06:59AM 54.8645 29.3001 250° West  Level FlightAware Approximate
07:00AM 54.8203 29.0933 250° West  Level FlightAware Approximate
07:01AM 54.7757 28.8870 250° West  Level FlightAware Approximate
07:02AM 54.7308 28.6812 249° West  Level FlightAware Approximate
07:03AM 54.6856 28.4758 249° West  Level FlightAware Approximate
07:03AM 54.5240 28.1320 249° West 450 518 34,000  Level FlightAware
07:04AM 54.4900 28.0170 243° Southwest 448 516 34,000  Level FlightAware
07:05AM 54.4550 27.8660 248° West 442 509 34,000  Level FlightAware
07:06AM 54.4150 27.6980 248° West 442 509 34,000  Level FlightAware
07:06AM 54.3860 27.5600 250° West 438 504 34,000  Level FlightAware
07:07AM 54.3470 27.3890 249° West 437 503 34,000  Level FlightAware
07:08AM 54.3090 27.2240 249° West 437 503 34,000  Level FlightAware
07:09AM 54.2650 27.0580 246° West 436 502 34,000  Level FlightAware
07:09AM 54.2360 26.9580 244° Southwest 436 502 34,000  Level FlightAware
07:10AM 54.1760 26.7520 244° Southwest 439 505 34,000  Level FlightAware
07:11AM 54.1150 26.5780 239° Southwest 441 507 34,000  Level FlightAware
07:12AM 54.0590 26.4050 241° Southwest 441 507 34,000  Level FlightAware
07:13AM 54.0180 26.2820 240° Southwest 442 509 34,000  Level FlightAware
07:14AM 53.9810 26.1710 240° Southwest 440 506 34,000  Level FlightAware
07:14AM 53.9330 26.0300 240° Southwest 441 507 34,000  Level FlightAware
07:15AM 53.9100 25.9610 241° Southwest 441 507 34,000  Level FlightAware
07:16AM 53.8560 25.8020 240° Southwest 442 509 34,000  Level FlightAware
07:16AM 53.8090 25.6670 240° Southwest 442 509 34,000  Level FlightAware
07:17AM 53.7700 25.5510 240° Southwest 443 510 34,000  Level FlightAware
07:18AM 53.7250 25.4210 240° Southwest 443 510 34,000  Level FlightAware
07:18AM 53.6820 25.2980 239° Southwest 442 509 34,000  Level FlightAware
07:19AM 53.6450 25.1940 239° Southwest 441 507 34,000  Level FlightAware
07:20AM 53.6000 25.0650 240° Southwest 441 507 34,000  Level FlightAware
07:20AM 53.5570 24.9420 240° Southwest 442 509 34,000  Level FlightAware
07:21AM 53.5130 24.8190 239° Southwest 442 509 34,000  Level FlightAware
07:22AM 53.4670 24.6910 239° Southwest 440 506 34,000  Level FlightAware
07:22AM 53.4290 24.5830 239° Southwest 438 504 34,000  Level FlightAware
07:23AM 53.3840 24.4580 239° Southwest 433 498 34,000  Level FlightAware
07:24AM 53.3470 24.3560 239° Southwest 431 496 34,000  Level FlightAware
07:25AM 53.3020 24.2310 239° Southwest 430 495 34,000  Level FlightAware
07:25AM 53.2600 24.1160 239° Southwest 431 496 34,000  Level FlightAware
07:26AM 53.2210 24.0110 238° Southwest 432 497 34,000  Level FlightAware
07:27AM 53.1800 23.8970 239° Southwest 434 499 34,000  Level FlightAware
07:27AM 53.1470 23.7570 249° West 438 504 34,000  Level FlightAware
07:28AM 53.1230 23.6440 251° West 439 505 34,000  Level FlightAware
07:29AM 53.0950 23.5150 250° West 439 505 34,000  Level FlightAware
07:29AM 53.0660 23.3790 251° West 438 504 34,000  Level FlightAware
07:30AM 53.0390 23.2570 250° West 438 504 34,000  Level FlightAware
07:31AM 53.0100 23.1240 250° West 437 503 34,000  Level FlightAware
07:31AM 52.9820 22.9930 251° West 437 503 34,000  Level FlightAware
07:32AM 52.9510 22.8540 250° West 436 502 34,000  Level FlightAware
07:33AM 52.9230 22.7280 250° West 436 502 34,000  Level FlightAware
07:33AM 52.8920 22.5910 249° West 437 503 34,000  Level FlightAware
07:34AM 52.8650 22.4680 250° West 436 502 34,000  Level FlightAware
07:35AM 52.8340 22.3300 250° West 437 503 34,000  Level FlightAware
07:36AM 52.8040 22.2000 249° West 437 503 34,000  Level FlightAware
07:36AM 52.7720 22.0590 249° West 439 505 34,000  Level FlightAware
07:37AM 52.7440 21.9380 249° West 439 505 34,000  Level FlightAware
07:38AM 52.7140 21.8110 249° West 442 509 34,000  Level FlightAware
07:38AM 52.6810 21.6710 249° West 451 519 34,000  Level FlightAware
07:39AM 52.6510 21.5430 249° West 450 518 34,000  Level FlightAware
07:40AM 52.6240 21.4280 249° West 449 517 34,000  Level FlightAware
07:40AM 52.5930 21.2950 249° West 449 517 34,000  Level FlightAware
07:41AM 52.5590 21.1550 248° West 450 518 34,000  Level FlightAware
07:42AM 52.5290 21.0290 249° West 450 518 34,000  Level FlightAware
07:42AM 52.4950 20.8890 248° West 448 516 34,000  Level FlightAware
07:43AM 52.4650 20.7640 249° West 449 517 34,000  Level FlightAware
07:44AM 52.4300 20.6250 248° West 449 517 34,000  Level FlightAware
07:44AM 52.3990 20.4980 248° West 449 517 34,000  Level FlightAware
07:45AM 52.3710 20.3840 248° West 448 516 34,000  Level FlightAware
07:46AM 52.3400 20.2610 248° West 448 516 34,000  Level FlightAware
07:46AM 52.3050 20.1230 248° West 448 516 34,000  Level FlightAware
07:47AM 52.2800 20.0210 248° West 451 519 34,000  Level FlightAware
07:48AM 52.2470 19.8900 248° West 452 520 34,000  Level FlightAware
07:48AM 52.2120 19.7530 247° West 452 520 34,000  Level FlightAware
07:49AM 52.1800 19.6290 247° West 452 520 34,000  Level FlightAware
07:50AM 52.1450 19.4930 247° West 452 520 34,000  Level FlightAware
07:51AM 52.1120 19.3680 247° West 452 520 34,000 180 Level FlightAware
07:51AM 52.0760 19.2290 247° West 456 525 34,300 600 Climbing FlightAware
07:52AM 52.0450 19.1120 247° West 454 522 34,800 660 Climbing FlightAware
07:53AM 52.0140 18.9930 247° West 457 526 35,200 480 Climbing FlightAware
07:53AM 51.9760 18.8500 247° West 463 533 35,500 360 Climbing FlightAware
07:54AM 51.9560 18.7280 255° West 468 539 35,700 360 Climbing FlightAware
07:54AM 51.9350 18.6100 254° West 470 541 36,000 180 Climbing FlightAware
07:55AM 51.8960 18.4710 246° West 473 544 36,000  Level FlightAware
07:56AM 51.8570 18.3310 246° West 474 545 36,000  Level FlightAware
07:57AM 51.8210 18.2020 246° West 470 541 36,000  Level FlightAware
07:57AM 51.7810 18.0600 246° West 467 537 36,000  Level FlightAware
07:58AM 51.7430 17.9250 246° West 466 536 36,000  Level FlightAware
07:59AM 51.7100 17.8090 245° Southwest 465 535 36,000  Level FlightAware
07:59AM 51.6740 17.6810 246° West 464 534 36,000  Level FlightAware
08:00AM 51.6370 17.5520 245° Southwest 467 537 36,000  Level FlightAware
08:01AM 51.6000 17.4250 245° Southwest 470 541 36,000  Level FlightAware
08:01AM 51.5640 17.3010 245° Southwest 472 543 36,000  Level FlightAware
08:02AM 51.5270 17.1750 245° Southwest 474 545 36,000  Level FlightAware
08:03AM 51.4910 17.0540 244° Southwest 475 547 36,000  Level FlightAware
08:03AM 51.4470 16.9050 245° Southwest 473 544 36,000  Level FlightAware
08:04AM 51.4100 16.7790 245° Southwest 474 545 36,000  Level FlightAware
08:05AM 51.3700 16.6450 244° Southwest 473 544 36,000  Level FlightAware
08:05AM 51.3320 16.5200 244° Southwest 473 544 36,000  Level FlightAware
08:06AM 51.2970 16.4040 244° Southwest 474 545 36,000  Level FlightAware
08:07AM 51.2570 16.2720 244° Southwest 476 548 36,000  Level FlightAware
08:07AM 51.2160 16.1370 244° Southwest 478 550 36,000  Level FlightAware
08:08AM 51.1760 16.0070 244° Southwest 481 554 36,000  Level FlightAware
08:09AM 51.1390 15.8870 244° Southwest 482 555 36,000  Level FlightAware
08:10AM 51.0940 15.7410 244° Southwest 482 555 36,000  Level FlightAware
08:10AM 51.0530 15.6090 244° Southwest 482 555 36,000  Level FlightAware
08:11AM 50.9870 15.3830 245° Southwest 480 552 36,000  Level FlightAware
08:12AM 50.9650 15.3050 246° West 482 555 36,000  Level FlightAware
08:13AM 50.9070 15.1100 245° Southwest 483 556 36,000  Level FlightAware
08:14AM 50.8700 14.9820 245° Southwest 484 557 36,000  Level FlightAware
08:14AM 50.8250 14.8320 245° Southwest 484 557 36,000  Level FlightAware
08:14AM 50.8190 14.8120 245° Southwest 484 557 36,000  Level FlightAware
08:16AM 50.7540 14.5940 245° Southwest 483 556 36,000  Level FlightAware
08:16AM 50.7060 14.4370 244° Southwest 482 555 36,000  Level FlightAware
08:17AM 50.6690 14.3120 245° Southwest 482 555 36,000  Level FlightAware
08:18AM 50.6260 14.1730 244° Southwest 478 550 36,000  Level FlightAware
08:18AM 50.5890 14.0510 245° Southwest 478 550 36,000  Level FlightAware
08:19AM 50.5500 13.9260 244° Southwest 479 551 36,000  Level FlightAware
08:20AM 50.5100 13.7980 244° Southwest 481 554 36,000  Level FlightAware
08:20AM 50.4710 13.6710 244° Southwest 482 555 36,000  Level FlightAware
08:21AM 50.4230 13.5170 244° Southwest 482 555 36,000  Level FlightAware
08:22AM 50.3810 13.3850 244° Southwest 484 557 36,000  Level FlightAware
08:23AM 50.3400 13.2540 244° Southwest 484 557 36,000  Level FlightAware
08:23AM 50.2950 13.1140 243° Southwest 486 559 36,000  Level FlightAware
08:24AM 50.2570 12.9940 244° Southwest 485 558 36,000  Level FlightAware
08:25AM 50.2120 12.8570 243° Southwest 483 556 36,000  Level FlightAware
08:25AM 50.1710 12.7280 244° Southwest 483 556 36,000  Level FlightAware
08:26AM 50.1270 12.5920 243° Southwest 481 554 36,000  Level FlightAware
08:27AM 50.0940 12.4580 249° West 475 547 36,000  Level FlightAware
08:28AM 50.0750 12.3210 258° West 466 536 36,000  Level FlightAware
08:28AM 50.0690 12.1960 266° West 458 527 36,000  Level FlightAware
08:29AM 50.0700 12.0480 271° West 456 525 36,000  Level FlightAware
08:29AM 50.0710 11.9630 271° West 457 526 36,000  Level FlightAware
08:31AM 50.0720 11.7690 271° West 459 528 36,000  Level FlightAware
08:31AM 50.0730 11.5890 271° West 461 531 36,000  Level FlightAware
08:32AM 50.0740 11.4660 271° West 461 531 36,000  Level FlightAware
08:33AM 50.0750 11.2390 270° West 460 529 36,000  Level FlightAware
08:34AM 50.0750 11.1110 270° West 459 528 36,000  Level FlightAware
08:34AM 50.0760 10.9750 271° West 460 529 36,000  Level FlightAware
08:35AM 50.0750 10.8040 270° West 461 531 36,000  Level FlightAware
08:36AM 50.0750 10.6640 270° West 462 532 36,000  Level FlightAware
08:37AM 50.0750 10.5180 270° West 460 529 36,000  Level FlightAware
08:37AM 50.0740 10.3960 269° West 460 529 36,000  Level FlightAware
08:38AM 50.0740 10.2490 270° West 461 531 36,000  Level FlightAware
08:39AM 50.0730 10.1040 269° West 461 531 36,000  Level FlightAware
08:40AM 50.0720 9.9660 269° West 463 533 36,000  Level FlightAware
08:40AM 50.0710 9.8220 269° West 464 534 36,000  Level FlightAware
08:41AM 50.0690 9.6880 269° West 464 534 36,000  Level FlightAware
08:42AM 50.0680 9.5410 269° West 464 534 36,000  Level FlightAware
08:42AM 50.0660 9.3970 269° West 465 535 36,000  Level FlightAware
08:43AM 50.0640 9.2620 269° West 465 535 36,000  Level FlightAware
08:44AM 50.0570 9.1300 265° West 470 541 36,000  Level FlightAware
08:44AM 50.0420 8.9820 261° West 470 541 36,000 -60 Level FlightAware
08:47AM 50.1159 8.5827 286° West  Level Estimated
08:48AM 50.1506 8.3921 286° West  Level Estimated
08:49AM 50.1849 8.2012 286° West  Level Estimated
08:50AM 50.2190 8.0101 286° West  Level Estimated
08:51AM 50.2528 7.8187 285° West  Level Estimated
08:52AM 50.2862 7.6270 285° West  Level Estimated
08:53AM 50.3193 7.4350 285° West  Level Estimated
08:54AM 50.3521 7.2428 285° West  Level Estimated
08:55AM 50.3846 7.0504 285° West  Level Estimated
08:56AM 50.4168 6.8576 285° West  Level Estimated
08:57AM 50.4486 6.6646 285° West  Level Estimated
08:58AM 50.4802 6.4714 284° West  Level Estimated
08:59AM 50.5114 6.2778 284° West  Level Estimated
09:00AM 50.5423 6.0841 284° West  Level Estimated
09:01AM 50.5728 5.8900 284° West  Level Estimated
09:02AM 50.6031 5.6958 284° West  Level Estimated
09:03AM 50.6330 5.5012 284° West  Level Estimated
09:04AM 50.6626 5.3065 284° West  Level Estimated
09:05AM 50.6919 5.1115 283° West  Level Estimated
09:05AM 49.5248 4.8378 283° West 1 1 35,000  Level FlightAware UK
09:07AM 49.4480 4.4178 254° West 1 1 35,000  Level FlightAware UK
09:08AM 49.4037 4.1804 254° West 1 1 35,000  Level FlightAware UK
09:09AM 49.3815 4.0623 254° West 1 1 35,000  Level FlightAware UK
09:11AM 49.3199 3.7345 254° West 1 1 35,000  Level FlightAware UK
09:11AM 49.3060 3.6140 260° West 1 1 35,000  Level FlightAware UK
09:14AM 49.2764 3.1733 264° West 1 1 35,000  Level FlightAware UK
09:15AM 49.2630 2.9569 265° West 1 1 35,000  Level FlightAware UK
09:15AM 49.2549 2.8376 264° West 1 1 35,000  Level FlightAware UK
09:16AM 49.2448 2.6960 264° West 1 1 35,000  Level FlightAware UK
09:18AM 49.1711 2.3559 252° West 1 1 35,000  Level FlightAware UK
09:18AM 49.1411 2.2651 243° Southwest 468 539 35,000  Level FlightAware UK
09:19AM 49.1110 2.1749 243° Southwest 468 539 35,000  Level FlightAware UK
09:19AM 49.0808 2.0849 243° Southwest 466 536 35,000  Level FlightAware UK
09:20AM 49.0445 1.9770 243° Southwest 466 536 35,000  Level FlightAware UK
09:20AM 49.0142 1.8875 243° Southwest 466 536 35,000  Level FlightAware UK
09:21AM 48.9780 1.7808 243° Southwest 464 534 35,000  Level FlightAware UK
09:22AM 48.9110 1.5841 243° Southwest 466 536 35,000  Level FlightAware UK
09:23AM 48.8638 1.4627 239° Southwest 466 536 35,000  Level FlightAware UK
09:23AM 48.8279 1.3762 238° Southwest 466 536 35,000  Level FlightAware UK
09:24AM 48.7993 1.2863 244° Southwest 468 539 35,000  Level FlightAware UK
09:25AM 48.7890 1.1282 264° West 464 534 35,000  Level FlightAware UK
09:25AM 48.7799 0.9497 266° West 466 536 35,000  Level FlightAware UK
09:26AM 48.7752 0.8505 266° West 464 534 35,000  Level FlightAware UK
09:27AM 48.7685 0.7123 266° West 464 534 35,000  Level FlightAware UK
09:27AM 48.7635 0.6134 266° West 464 534 35,000  Level FlightAware UK
09:28AM 48.7576 0.4944 266° West 464 534 35,000  Level FlightAware UK
09:29AM 48.7498 0.3359 266° West 464 534 35,000  Level FlightAware UK
09:30AM 48.7370 0.0979 265° West 464 534 35,000  Level FlightAware UK
09:30AM 48.7314 -0.0016 265° West 464 534 35,000  Level FlightAware UK
09:31AM 48.7248 -0.1205 265° West 466 536 35,000  Level FlightAware UK
09:31AM 48.7260 -0.1060 265° West 476 548 35,000  Level FlightAware
09:32AM 48.7170 -0.2590 265° West 476 548 35,000  Level FlightAware
09:32AM 48.7090 -0.4040 265° West 475 547 35,000  Level FlightAware
09:33AM 48.7030 -0.5100 265° West 475 547 35,000  Level FlightAware
09:33AM 48.6940 -0.6540 265° West 475 547 35,000  Level FlightAware
09:34AM 48.6873 -0.7544 265° West 464 534 35,000  Level FlightAware UK
09:34AM 48.6860 -0.7850 265° West 476 548 35,000  Level FlightAware
09:35AM 48.6760 -0.9420 265° West 475 547 35,000  Level FlightAware
09:36AM 48.6670 -1.0760 264° West 475 547 35,000  Level FlightAware
09:36AM 48.6580 -1.2140 264° West 476 548 35,000  Level FlightAware
09:37AM 48.6490 -1.3480 264° West 476 548 35,000  Level FlightAware
09:38AM 48.6400 -1.4810 264° West 476 548 35,000  Level FlightAware
09:38AM 48.6320 -1.6010 264° West 476 548 35,000  Level FlightAware
09:39AM 48.6220 -1.7430 264° West 475 547 35,000  Level FlightAware
09:40AM 48.6120 -1.8720 263° West 474 545 35,000  Level FlightAware
09:40AM 48.6020 -2.0100 264° West 473 544 35,000  Level FlightAware
09:41AM 48.5923 -2.1367 264° West 462 532 35,000  Level FlightAware UK
09:41AM 48.5910 -2.1600 264° West 472 543 35,000  Level FlightAware
09:42AM 48.5806 -2.2938 264° West 466 536 35,000  Level FlightAware UK
09:42AM 48.5810 -2.2890 264° West 473 544 35,000  Level FlightAware
09:42AM 48.5717 -2.4107 264° West 466 536 35,000  Level FlightAware UK
09:43AM 48.5700 -2.4390 264° West 472 543 35,000  Level FlightAware
09:43AM 48.5620 -2.5410 263° West 472 543 35,000  Level FlightAware
09:44AM 48.5510 -2.6870 264° West 471 542 35,000  Level FlightAware
09:44AM 48.5400 -2.8170 263° West 470 541 35,000  Level FlightAware
09:45AM 48.5300 -2.9420 263° West 471 542 35,000  Level FlightAware
09:46AM 48.5188 -3.0732 263° West 464 534 35,000  Level FlightAware UK
09:46AM 48.5190 -3.0720 263° West 471 542 35,000  Level FlightAware
09:46AM 48.5080 -3.2030 263° West 472 543 35,000  Level FlightAware
09:46AM 48.5073 -3.2098 263° West 464 534 35,000  Level FlightAware UK
09:47AM 48.4990 -3.3140 263° West 472 543 35,000  Level FlightAware
09:48AM 48.4892 -3.4242 263° West 466 536 35,000  Level FlightAware UK
09:48AM 48.4860 -3.4630 263° West 472 543 35,000  Level FlightAware
09:48AM 48.4750 -3.5940 263° West 472 543 35,000  Level FlightAware
09:49AM 48.4654 -3.6967 263° West 464 534 35,000  Level FlightAware UK
09:49AM 48.4620 -3.7380 263° West 472 543 35,000  Level FlightAware
09:50AM 48.4513 -3.8527 263° West 464 534 35,000  Level FlightAware UK
09:50AM 48.4510 -3.8650 263° West 472 543 35,000  Level FlightAware
09:50AM 48.4392 -3.9893 263° West 464 534 35,000  Level FlightAware UK
09:51AM 48.4370 -4.0100 263° West 472 543 35,000  Level FlightAware
09:51AM 48.4250 -4.1400 262° West 472 543 35,000  Level FlightAware
09:52AM 48.4150 -4.2560 263° West 473 544 35,000  Level FlightAware
09:52AM 48.4047 -4.3589 263° West 466 536 35,000  Level FlightAware UK
09:53AM 48.4010 -4.4000 263° West 472 543 35,000  Level FlightAware
09:53AM 48.3890 -4.5250 262° West 472 543 35,000  Level FlightAware
09:54AM 48.3770 -4.6490 262° West 472 543 35,000  Level FlightAware
09:55AM 48.3640 -4.7800 262° West 474 545 35,000  Level FlightAware
09:55AM 48.3500 -4.9210 262° West 474 545 35,000  Level FlightAware
09:56AM 48.3384 -5.0402 262° West 466 536 35,000  Level FlightAware UK
09:56AM 48.3380 -5.0490 262° West 474 545 35,000  Level FlightAware
09:57AM 48.3230 -5.1930 261° West 473 544 35,000  Level FlightAware
09:57AM 48.3100 -5.3240 262° West 471 542 35,000  Level FlightAware
09:58AM 48.2960 -5.4530 261° West 470 541 35,000  Level FlightAware
09:59AM 48.2847 -5.5638 261° West 464 534 35,000  Level FlightAware UK
09:59AM 48.2830 -5.5750 261° West 469 540 35,000  Level FlightAware
09:59AM 48.2700 -5.7010 261° West 469 540 35,000  Level FlightAware
10:00AM 48.2550 -5.8400 261° West 470 541 35,000  Level FlightAware
10:01AM 48.2411 -5.9669 261° West 464 534 35,000  Level FlightAware UK
10:01AM 48.2400 -5.9770 261° West 470 541 35,000  Level FlightAware
10:01AM 48.2250 -6.1150 261° West 469 540 35,000  Level FlightAware
10:02AM 48.2110 -6.2440 261° West 468 539 35,000  Level FlightAware
10:02AM 48.2085 -6.2548 261° West 464 534 35,000  Level FlightAware UK
10:03AM 48.1979 -6.3506 261° West 464 534 35,000  Level FlightAware UK
10:03AM 48.1960 -6.3700 261° West 467 537 35,000  Level FlightAware
10:04AM 48.1800 -6.5140 261° West 467 537 35,000  Level FlightAware
10:04AM 48.1680 -6.6220 261° West 467 537 35,000  Level FlightAware
10:05AM 48.1543 -6.7317 261° West 464 534 35,000  Level FlightAware UK
10:05AM 48.1520 -6.7590 261° West 468 539 35,000 -360 Level FlightAware
10:06AM 48.1360 -6.8940 260° West 470 541 34,700 -540 Descending FlightAware
10:06AM 48.1210 -7.0230 260° West 470 541 34,300 -600 Descending FlightAware
10:07AM 48.1040 -7.1600 260° West 472 543 33,900 -480 Descending FlightAware
10:08AM 48.0850 -7.3190 260° West 474 545 33,600 -60 Descending FlightAware
10:09AM 48.1130 -7.0890 80° East 32,700 -60 Descending FlightAware
10:12AM 48.1429 -7.5626 276° West  Level Estimated
10:13AM 48.1544 -7.7521 275° West  Level Estimated
10:14AM 48.1655 -7.9418 275° West  Level Estimated
10:15AM 48.1763 -8.1315 275° West  Level Estimated
10:16AM 48.1868 -8.3213 275° West  Level Estimated
10:17AM 48.1969 -8.5112 275° West  Level Estimated
10:18AM 48.2068 -8.7012 275° West  Level Estimated
10:19AM 48.2164 -8.8912 274° West  Level Estimated
10:20AM 48.2256 -9.0814 274° West  Level Estimated
10:21AM 48.2345 -9.2715 274° West  Level Estimated
10:22AM 48.2431 -9.4618 274° West  Level Estimated
10:23AM 48.2514 -9.6521 274° West  Level Estimated
10:24AM 48.2594 -9.8424 274° West  Level Estimated
10:25AM 48.2671 -10.0329 274° West  Level Estimated
10:26AM 48.2744 -10.2233 273° West  Level Estimated
10:27AM 48.2815 -10.4139 273° West  Level Estimated
10:28AM 48.2882 -10.6044 273° West  Level Estimated
10:29AM 48.2946 -10.7951 273° West  Level Estimated
10:30AM 48.3007 -10.9858 273° West  Level Estimated
10:31AM 48.3065 -11.1765 273° West  Level Estimated
10:32AM 48.3119 -11.3672 273° West  Level Estimated
10:33AM 48.3171 -11.5581 272° West  Level Estimated
10:34AM 48.3219 -11.7489 272° West  Level Estimated
10:35AM 48.3264 -11.9398 272° West  Level Estimated
10:36AM 48.3306 -12.1307 272° West  Level Estimated
10:37AM 48.3345 -12.3216 272° West  Level Estimated
10:38AM 48.3381 -12.5126 272° West  Level Estimated
10:39AM 48.3413 -12.7036 272° West  Level Estimated
10:40AM 48.3443 -12.8946 271° West  Level Estimated
10:41AM 48.3469 -13.0856 271° West  Level Estimated
10:42AM 48.3492 -13.2767 271° West  Level Estimated
10:43AM 48.3512 -13.4678 271° West  Level Estimated
10:44AM 48.3528 -13.6589 271° West  Level Estimated
10:45AM 48.3542 -13.8500 271° West  Level Estimated
10:46AM 48.3552 -14.0411 271° West  Level Estimated
10:47AM 48.3559 -14.2322 270° West  Level Estimated
10:48AM 48.3563 -14.4233 270° West  Level Estimated
10:49AM 48.3564 -14.6144 270° West  Level Estimated
10:50AM 48.3562 -14.8055 270° West  Level Estimated
10:51AM 48.3557 -14.9967 270° West  Level Estimated
10:52AM 48.3548 -15.1878 270° West  Level Estimated
10:53AM 48.3536 -15.3789 270° West  Level Estimated
10:54AM 48.3521 -15.5700 269° West  Level Estimated
10:55AM 48.3503 -15.7610 269° West  Level Estimated
10:56AM 48.3482 -15.9521 269° West  Level Estimated
10:57AM 48.3458 -16.1432 269° West  Level Estimated
10:58AM 48.3430 -16.3342 269° West  Level Estimated
10:59AM 48.3399 -16.5252 269° West  Level Estimated
11:00AM 48.3365 -16.7162 269° West  Level Estimated
11:01AM 48.3328 -16.9071 268° West  Level Estimated
11:02AM 48.3288 -17.0981 268° West  Level Estimated
11:03AM 48.3245 -17.2890 268° West  Level Estimated
11:04AM 48.3198 -17.4798 268° West  Level Estimated
11:05AM 48.3148 -17.6707 268° West  Level Estimated
11:06AM 48.3095 -17.8615 268° West  Level Estimated
11:07AM 48.3039 -18.0522 268° West  Level Estimated
11:08AM 48.2980 -18.2429 267° West  Level Estimated
11:09AM 48.2918 -18.4336 267° West  Level Estimated
11:10AM 48.2852 -18.6242 267° West  Level Estimated
11:11AM 48.2784 -18.8147 267° West  Level Estimated
11:12AM 48.2712 -19.0052 267° West  Level Estimated
11:13AM 48.2637 -19.1957 267° West  Level Estimated
11:13AM 47.0000 -20.0000 265° West 481 554 32,000  Level ETMS Enhanced Traffic Management System
11:14AM 48.2559 -19.3861 267° West  Level Estimated
11:15AM 48.2478 -19.5764 266° West  Level Estimated
11:16AM 48.2393 -19.7667 266° West  Level Estimated
11:17AM 48.2306 -19.9569 266° West  Level Estimated
11:18AM 48.2215 -20.1471 266° West  Level Estimated
11:19AM 46.9166 -21.3655 264° West 481 554 32,000  Level FlightAware Transoceanic
11:20AM 46.9034 -21.5602 264° West 481 554 32,000  Level FlightAware Transoceanic
11:21AM 46.8898 -21.7548 264° West 481 554 32,000  Level FlightAware Transoceanic
11:22AM 46.8759 -21.9493 264° West 481 554 32,000  Level FlightAware Transoceanic
11:23AM 46.8617 -22.1437 264° West 481 554 32,000  Level FlightAware Transoceanic
11:24AM 46.8471 -22.3380 264° West 481 554 32,000  Level FlightAware Transoceanic
11:25AM 46.8322 -22.5322 264° West 481 554 32,000  Level FlightAware Transoceanic
11:26AM 46.8170 -22.7263 263° West 481 554 32,000  Level FlightAware Transoceanic
11:27AM 46.8015 -22.9203 263° West 481 554 32,000  Level FlightAware Transoceanic
11:28AM 46.7856 -23.1142 263° West 481 554 32,000  Level FlightAware Transoceanic
11:29AM 46.7695 -23.3079 263° West 481 554 32,000  Level FlightAware Transoceanic
11:30AM 46.7529 -23.5015 263° West 481 554 32,000  Level FlightAware Transoceanic
11:31AM 46.7361 -23.6950 263° West 481 554 32,000  Level FlightAware Transoceanic
11:32AM 46.7189 -23.8884 263° West 481 554 32,000  Level FlightAware Transoceanic
11:33AM 46.7014 -24.0817 262° West 481 554 32,000  Level FlightAware Transoceanic
11:34AM 46.6836 -24.2749 262° West 481 554 32,000  Level FlightAware Transoceanic
11:35AM 46.6654 -24.4679 262° West 481 554 32,000  Level FlightAware Transoceanic
11:36AM 46.6470 -24.6607 262° West 481 554 32,000  Level FlightAware Transoceanic
11:37AM 46.6282 -24.8535 262° West 481 554 32,000  Level FlightAware Transoceanic
11:38AM 46.6091 -25.0461 262° West 481 554 32,000  Level FlightAware Transoceanic
11:39AM 46.5896 -25.2386 262° West 481 554 32,000  Level FlightAware Transoceanic
11:40AM 46.5698 -25.4309 261° West 481 554 32,000  Level FlightAware Transoceanic
11:41AM 46.5498 -25.6231 261° West 481 554 32,000  Level FlightAware Transoceanic
11:42AM 46.5294 -25.8152 261° West 481 554 32,000  Level FlightAware Transoceanic
11:43AM 46.5086 -26.0071 261° West 481 554 32,000  Level FlightAware Transoceanic
11:44AM 46.4876 -26.1988 261° West 481 554 32,000  Level FlightAware Transoceanic
11:45AM 46.4662 -26.3904 261° West 481 554 32,000  Level FlightAware Transoceanic
11:46AM 46.4445 -26.5819 261° West 481 554 32,000  Level FlightAware Transoceanic
11:47AM 46.4225 -26.7732 260° West 481 554 32,000  Level FlightAware Transoceanic
11:48AM 46.4002 -26.9643 260° West 481 554 32,000  Level FlightAware Transoceanic
11:49AM 46.3775 -27.1553 260° West 481 554 32,000  Level FlightAware Transoceanic
11:50AM 46.3546 -27.3462 260° West 481 554 32,000  Level FlightAware Transoceanic
11:51AM 46.3313 -27.5368 260° West 481 554 32,000  Level FlightAware Transoceanic
11:52AM 46.3077 -27.7273 260° West 481 554 32,000  Level FlightAware Transoceanic
11:53AM 46.2838 -27.9177 260° West 481 554 32,000  Level FlightAware Transoceanic
11:54AM 46.2595 -28.1079 259° West 481 554 32,000  Level FlightAware Transoceanic
11:55AM 46.2350 -28.2979 259° West 481 554 32,000  Level FlightAware Transoceanic
11:56AM 46.2101 -28.4877 259° West 481 554 32,000  Level FlightAware Transoceanic
11:57AM 46.1850 -28.6774 259° West 481 554 32,000  Level FlightAware Transoceanic
11:58AM 46.1595 -28.8668 259° West 481 554 32,000  Level FlightAware Transoceanic
11:59AM 46.1337 -29.0562 259° West 481 554 32,000  Level FlightAware Transoceanic
12:00PM 46.1076 -29.2453 259° West 481 554 32,000  Level FlightAware Transoceanic
12:01PM 46.0811 -29.4342 259° West 481 554 32,000  Level FlightAware Transoceanic
12:02PM 46.0544 -29.6230 258° West 481 554 32,000  Level FlightAware Transoceanic
12:03PM 46.0274 -29.8116 258° West 481 554 32,000  Level FlightAware Transoceanic
12:04PM 46.0048 -29.9916 260° West  Level Estimated
12:05PM 45.9819 -30.1714 260° West  Level Estimated
12:06PM 45.9588 -30.3510 260° West  Level Estimated
12:07PM 45.9353 -30.5305 259° West  Level Estimated
12:08PM 45.9117 -30.7099 259° West  Level Estimated
12:09PM 45.8877 -30.8891 259° West  Level Estimated
12:10PM 45.8634 -31.0682 259° West  Level Estimated
12:11PM 45.8389 -31.2470 259° West  Level Estimated
12:12PM 45.8140 -31.4258 259° West  Level Estimated
12:13PM 45.7890 -31.6044 259° West  Level Estimated
12:14PM 45.7636 -31.7828 259° West  Level Estimated
12:15PM 45.7379 -31.9610 258° West  Level Estimated
12:16PM 45.7120 -32.1391 258° West  Level Estimated
12:17PM 45.6858 -32.3170 258° West  Level Estimated
12:18PM 45.6593 -32.4948 258° West  Level Estimated
12:19PM 45.6325 -32.6724 258° West  Level Estimated
12:20PM 45.6055 -32.8498 258° West  Level Estimated
12:21PM 45.5782 -33.0270 258° West  Level Estimated
12:22PM 45.5506 -33.2041 258° West  Level Estimated
12:23PM 45.5228 -33.3810 257° West  Level Estimated
12:24PM 45.4946 -33.5577 257° West  Level Estimated
12:25PM 45.4662 -33.7342 257° West  Level Estimated
12:26PM 45.4376 -33.9106 257° West  Level Estimated
12:27PM 45.4086 -34.0868 257° West  Level Estimated
12:28PM 45.3794 -34.2628 257° West  Level Estimated
12:29PM 45.3499 -34.4386 257° West  Level Estimated
12:30PM 45.3202 -34.6142 257° West  Level Estimated
12:31PM 45.2902 -34.7897 256° West  Level Estimated
12:32PM 45.2599 -34.9649 256° West  Level Estimated
12:33PM 45.2293 -35.1400 256° West  Level Estimated
12:34PM 45.1985 -35.3149 256° West  Level Estimated
12:35PM 45.1674 -35.4896 256° West  Level Estimated
12:36PM 45.1361 -35.6641 256° West  Level Estimated
12:37PM 45.1044 -35.8384 256° West  Level Estimated
12:38PM 45.0725 -36.0125 256° West  Level Estimated
12:39PM 45.0404 -36.1865 255° West  Level Estimated
12:40PM 45.0080 -36.3602 255° West  Level Estimated
12:41PM 44.9753 -36.5337 255° West  Level Estimated
12:42PM 44.9423 -36.7070 255° West  Level Estimated
12:43PM 44.9091 -36.8802 255° West  Level Estimated
12:44PM 44.8757 -37.0531 255° West  Level Estimated
12:45PM 44.8420 -37.2258 255° West  Level Estimated
12:46PM 44.8080 -37.3984 255° West  Level Estimated
12:47PM 44.7737 -37.5707 254° West  Level Estimated
12:48PM 44.7392 -37.7428 254° West  Level Estimated
12:49PM 44.7045 -37.9147 254° West  Level Estimated
12:50PM 44.6694 -38.0864 254° West  Level Estimated
12:51PM 44.6342 -38.2579 254° West  Level Estimated
12:52PM 44.5986 -38.4292 254° West  Level Estimated
12:53PM 44.5629 -38.6003 254° West  Level Estimated
12:54PM 44.5268 -38.7711 254° West  Level Estimated
12:55PM 44.4905 -38.9418 253° West  Level Estimated
12:56PM 44.4540 -39.1122 253° West  Level Estimated
12:57PM 44.4172 -39.2825 253° West  Level Estimated
12:58PM 44.3801 -39.4525 253° West  Level Estimated
12:59PM 44.3428 -39.6223 253° West  Level Estimated
01:00PM 44.3052 -39.7919 253° West  Level Estimated
01:01PM 44.2674 -39.9612 253° West  Level Estimated
01:02PM 44.2294 -40.1303 253° West  Level Estimated
01:03PM 44.1911 -40.2993 253° West  Level Estimated
01:04PM 44.1525 -40.4680 252° West  Level Estimated
01:05PM 44.1137 -40.6365 252° West  Level Estimated
01:06PM 44.0746 -40.8047 252° West  Level Estimated
01:07PM 44.0353 -40.9728 252° West  Level Estimated
01:08PM 43.9958 -41.1406 252° West  Level Estimated
01:09PM 43.9560 -41.3082 252° West  Level Estimated
01:09PM 43.0000 -40.0000 252° West 458 527 33,000  Level New York Oceanic (ODAPS)
01:10PM 43.9160 -41.4755 252° West  Level Estimated
01:11PM 43.8757 -41.6427 252° West  Level Estimated
01:12PM 43.8352 -41.8096 251° West  Level Estimated
01:13PM 43.7944 -41.9762 251° West  Level Estimated
01:14PM 43.7534 -42.1427 251° West  Level Estimated
01:15PM 43.7121 -42.3089 251° West  Level Estimated
01:16PM 42.7526 -40.9918 251° West 458 527 33,000  Level FlightAware Transoceanic
01:17PM 42.7106 -41.1563 251° West 458 527 33,000  Level FlightAware Transoceanic
01:18PM 42.6683 -41.3206 251° West 458 527 33,000  Level FlightAware Transoceanic
01:19PM 42.6258 -41.4847 251° West 458 527 33,000  Level FlightAware Transoceanic
01:20PM 42.5830 -41.6486 250° West 458 527 33,000  Level FlightAware Transoceanic
01:21PM 42.5400 -41.8122 250° West 458 527 33,000  Level FlightAware Transoceanic
01:22PM 42.4968 -41.9756 250° West 458 527 33,000  Level FlightAware Transoceanic
01:23PM 42.4533 -42.1388 250° West 458 527 33,000  Level FlightAware Transoceanic
01:24PM 42.4096 -42.3017 250° West 458 527 33,000  Level FlightAware Transoceanic
01:25PM 42.3657 -42.4645 250° West 458 527 33,000  Level FlightAware Transoceanic
01:25PM 42.3667 -42.4333 250° West 465 535 33,000  Level New York Oceanic (ODAPS)
01:26PM 42.3216 -42.6270 250° West 458 527 33,000  Level FlightAware Transoceanic
01:27PM 42.2772 -42.7892 250° West 458 527 33,000  Level FlightAware Transoceanic
01:28PM 42.2326 -42.9513 250° West 458 527 33,000  Level FlightAware Transoceanic
01:29PM 42.1877 -43.1131 249° West 458 527 33,000  Level FlightAware Transoceanic
01:30PM 42.1427 -43.2747 249° West 458 527 33,000  Level FlightAware Transoceanic
01:31PM 42.0974 -43.4360 249° West 458 527 33,000  Level FlightAware Transoceanic
01:32PM 42.0927 -43.4296 249° West 465 535 33,000  Level FlightAware Transoceanic
01:33PM 42.0462 -43.5947 249° West 465 535 33,000  Level FlightAware Transoceanic
01:34PM 41.9994 -43.7597 249° West 465 535 33,000  Level FlightAware Transoceanic
01:35PM 41.9524 -43.9244 249° West 465 535 33,000  Level FlightAware Transoceanic
01:36PM 41.9052 -44.0889 249° West 465 535 33,000  Level FlightAware Transoceanic
01:37PM 41.8578 -44.2531 249° West 465 535 33,000  Level FlightAware Transoceanic
01:38PM 41.8101 -44.4171 249° West 465 535 33,000  Level FlightAware Transoceanic
01:39PM 41.7622 -44.5808 249° West 465 535 33,000  Level FlightAware Transoceanic
01:40PM 41.7141 -44.7443 248° West 465 535 33,000  Level FlightAware Transoceanic
01:41PM 41.6657 -44.9075 248° West 465 535 33,000  Level FlightAware Transoceanic
01:42PM 41.6171 -45.0705 248° West 465 535 33,000  Level FlightAware Transoceanic
01:43PM 41.5682 -45.2333 248° West 465 535 33,000  Level FlightAware Transoceanic
01:44PM 41.5192 -45.3958 248° West 465 535 33,000  Level FlightAware Transoceanic
01:45PM 41.4699 -45.5580 248° West 465 535 33,000  Level FlightAware Transoceanic
01:46PM 41.4204 -45.7201 248° West 465 535 33,000  Level FlightAware Transoceanic
01:46PM 41.4167 -45.7667 248° West 485 558 33,000  Level New York Oceanic (ODAPS)
01:47PM 41.3706 -45.8818 248° West 465 535 33,000  Level FlightAware Transoceanic
01:48PM 41.3206 -46.0433 248° West 465 535 33,000  Level FlightAware Transoceanic
01:49PM 41.2705 -46.2046 247° West 465 535 33,000  Level FlightAware Transoceanic
01:50PM 41.2200 -46.3656 247° West 465 535 33,000  Level FlightAware Transoceanic
01:51PM 41.1694 -46.5264 247° West 465 535 33,000  Level FlightAware Transoceanic
01:52PM 41.1036 -46.7596 247° West 485 558 33,000  Level FlightAware Transoceanic
01:53PM 41.0506 -46.9241 247° West 485 558 33,000  Level FlightAware Transoceanic
01:54PM 40.9973 -47.0884 247° West 485 558 33,000  Level FlightAware Transoceanic
01:55PM 40.9439 -47.2524 247° West 485 558 33,000  Level FlightAware Transoceanic
01:56PM 40.8902 -47.4162 246° West 485 558 33,000  Level FlightAware Transoceanic
01:57PM 40.8362 -47.5797 246° West 485 558 33,000  Level FlightAware Transoceanic
01:58PM 40.7821 -47.7429 246° West 485 558 33,000  Level FlightAware Transoceanic
01:59PM 40.7277 -47.9059 246° West 485 558 33,000  Level FlightAware Transoceanic
02:00PM 40.6730 -48.0686 246° West 485 558 33,000  Level FlightAware Transoceanic
02:01PM 40.6182 -48.2310 246° West 485 558 33,000  Level FlightAware Transoceanic
02:02PM 40.5631 -48.3931 246° West 485 558 33,000  Level FlightAware Transoceanic
02:03PM 40.5078 -48.5550 246° West 485 558 33,000  Level FlightAware Transoceanic
02:04PM 40.4523 -48.7166 246° West 485 558 33,000  Level FlightAware Transoceanic
02:05PM 40.3965 -48.8780 246° West 485 558 33,000  Level FlightAware Transoceanic
02:06PM 40.3405 -49.0391 245° Southwest 485 558 33,000  Level FlightAware Transoceanic
02:06PM 40.3167 -49.1000 246° West 476 548 33,000  Level New York Oceanic (ODAPS)
02:07PM 40.2843 -49.1999 245° Southwest 485 558 33,000  Level FlightAware Transoceanic
02:08PM 40.2279 -49.3605 245° Southwest 485 558 33,000  Level FlightAware Transoceanic
02:09PM 40.1713 -49.5207 245° Southwest 485 558 33,000  Level FlightAware Transoceanic
02:10PM 40.1144 -49.6808 245° Southwest 485 558 33,000  Level FlightAware Transoceanic
02:11PM 40.0573 -49.8405 245° Southwest 485 558 33,000  Level FlightAware Transoceanic
02:11PM 40.0000 -50.0000 236° Southwest 488 562 33,000  Level New York Oceanic (ODAPS)
02:12PM 40.0000 -50.0000 236° Southwest 476 548 33,000  Level FlightAware Transoceanic
02:13PM 39.9268 -50.1422 236° Southwest 476 548 33,000  Level FlightAware Transoceanic
02:14PM 39.8535 -50.2842 236° Southwest 476 548 33,000  Level FlightAware Transoceanic
02:15PM 39.7800 -50.4258 236° Southwest 476 548 33,000  Level FlightAware Transoceanic
02:16PM 39.7063 -50.5672 236° Southwest 476 548 33,000  Level FlightAware Transoceanic
02:17PM 39.6325 -50.7082 236° Southwest 476 548 33,000  Level FlightAware Transoceanic
02:18PM 39.5402 -50.8836 236° Southwest 488 562 33,000  Level FlightAware Transoceanic
02:19PM 39.4629 -51.0297 236° Southwest 488 562 33,000  Level FlightAware Transoceanic
02:20PM 39.3855 -51.1755 235° Southwest 488 562 33,000  Level FlightAware Transoceanic
02:21PM 39.3078 -51.3209 235° Southwest 488 562 33,000  Level FlightAware Transoceanic
02:22PM 39.2300 -51.4661 235° Southwest 488 562 33,000  Level FlightAware Transoceanic
02:23PM 39.1520 -51.6109 235° Southwest 488 562 33,000  Level FlightAware Transoceanic
02:24PM 39.0738 -51.7554 235° Southwest 488 562 33,000  Level FlightAware Transoceanic
02:25PM 38.9954 -51.8996 235° Southwest 488 562 33,000  Level FlightAware Transoceanic
02:26PM 38.9169 -52.0435 235° Southwest 488 562 33,000  Level FlightAware Transoceanic
02:26PM 38.9000 -52.0667 235° Southwest 483 556 33,000  Level New York Oceanic (ODAPS)
02:27PM 38.8382 -52.1870 235° Southwest 488 562 33,000  Level FlightAware Transoceanic
02:28PM 38.7593 -52.3302 235° Southwest 488 562 33,000  Level FlightAware Transoceanic
02:29PM 38.6802 -52.4732 235° Southwest 488 562 33,000  Level FlightAware Transoceanic
02:30PM 38.6010 -52.6158 235° Southwest 488 562 33,000  Level FlightAware Transoceanic
02:31PM 38.5216 -52.7580 234° Southwest 488 562 33,000  Level FlightAware Transoceanic
02:32PM 38.4420 -52.9000 234° Southwest 488 562 33,000  Level FlightAware Transoceanic
02:33PM 38.3565 -53.0453 234° Southwest 483 556 33,000  Level FlightAware Transoceanic
02:34PM 38.2782 -53.1839 234° Southwest 483 556 33,000  Level FlightAware Transoceanic
02:35PM 38.1997 -53.3222 234° Southwest 483 556 33,000  Level FlightAware Transoceanic
02:36PM 38.1211 -53.4602 234° Southwest 483 556 33,000  Level FlightAware Transoceanic
02:37PM 38.0423 -53.5979 234° Southwest 483 556 33,000  Level FlightAware Transoceanic
02:38PM 37.9633 -53.7353 234° Southwest 483 556 33,000  Level FlightAware Transoceanic
02:39PM 37.8842 -53.8724 234° Southwest 483 556 33,000  Level FlightAware Transoceanic
02:40PM 37.8049 -54.0092 234° Southwest 483 556 33,000  Level FlightAware Transoceanic
02:41PM 37.7255 -54.1457 234° Southwest 483 556 33,000  Level FlightAware Transoceanic
02:42PM 37.6459 -54.2819 234° Southwest 483 556 33,000  Level FlightAware Transoceanic
02:43PM 37.5662 -54.4179 233° Southwest 483 556 33,000  Level FlightAware Transoceanic
02:44PM 37.4863 -54.5535 233° Southwest 483 556 33,000  Level FlightAware Transoceanic
02:45PM 37.4062 -54.6889 233° Southwest 483 556 33,000  Level FlightAware Transoceanic
02:46PM 37.3260 -54.8239 233° Southwest 483 556 33,000  Level FlightAware Transoceanic
02:46PM 37.3333 -54.8167 233° Southwest 484 557 33,000  Level New York Oceanic (ODAPS)
02:47PM 37.2456 -54.9587 233° Southwest 483 556 33,000  Level FlightAware Transoceanic
02:48PM 37.1651 -55.0932 233° Southwest 483 556 33,000  Level FlightAware Transoceanic
02:49PM 37.0845 -55.2274 233° Southwest 483 556 33,000  Level FlightAware Transoceanic
02:50PM 37.0037 -55.3613 233° Southwest 483 556 33,000  Level FlightAware Transoceanic
02:51PM 36.9227 -55.4950 233° Southwest 483 556 33,000  Level FlightAware Transoceanic
02:52PM 36.8416 -55.6283 233° Southwest 483 556 33,000  Level FlightAware Transoceanic
02:53PM 36.8478 -55.6222 233° Southwest 484 557 33,000  Level FlightAware Transoceanic
02:54PM 36.7664 -55.7555 233° Southwest 484 557 33,000  Level FlightAware Transoceanic
02:55PM 36.6848 -55.8885 233° Southwest 484 557 33,000  Level FlightAware Transoceanic
02:56PM 36.6031 -56.0212 232° Southwest 484 557 33,000  Level FlightAware Transoceanic
02:57PM 36.5212 -56.1536 232° Southwest 484 557 33,000  Level FlightAware Transoceanic
02:58PM 36.4392 -56.2857 232° Southwest 484 557 33,000  Level FlightAware Transoceanic
02:59PM 36.3570 -56.4176 232° Southwest 484 557 33,000  Level FlightAware Transoceanic
03:00PM 36.2747 -56.5492 232° Southwest 484 557 33,000  Level FlightAware Transoceanic
03:01PM 36.1922 -56.6805 232° Southwest 484 557 33,000  Level FlightAware Transoceanic
03:02PM 36.1096 -56.8115 232° Southwest 484 557 33,000  Level FlightAware Transoceanic
03:03PM 36.0268 -56.9422 232° Southwest 484 557 33,000  Level FlightAware Transoceanic
03:04PM 35.9440 -57.0727 232° Southwest 484 557 33,000  Level FlightAware Transoceanic
03:05PM 35.8609 -57.2029 232° Southwest 484 557 33,000  Level FlightAware Transoceanic
03:06PM 35.7777 -57.3328 232° Southwest 484 557 33,000  Level FlightAware Transoceanic
03:07PM 35.6944 -57.4625 232° Southwest 484 557 33,000  Level FlightAware Transoceanic
03:07PM 35.6833 -57.4667 232° Southwest 489 563 33,000  Level New York Oceanic (ODAPS)
03:08PM 35.6110 -57.5919 232° Southwest 484 557 33,000  Level FlightAware Transoceanic
03:09PM 35.5274 -57.7210 231° Southwest 484 557 33,000  Level FlightAware Transoceanic
03:10PM 35.4437 -57.8498 231° Southwest 484 557 33,000  Level FlightAware Transoceanic
03:11PM 35.3598 -57.9784 231° Southwest 484 557 33,000  Level FlightAware Transoceanic
03:12PM 35.2758 -58.1067 231° Southwest 484 557 33,000  Level FlightAware Transoceanic
03:13PM 35.1839 -58.2376 231° Southwest 489 563 33,000  Level FlightAware Transoceanic
03:14PM 35.1002 -58.3652 231° Southwest 489 563 33,000  Level FlightAware Transoceanic
03:15PM 35.0163 -58.4925 231° Southwest 489 563 33,000  Level FlightAware Transoceanic
03:16PM 34.9323 -58.6195 231° Southwest 489 563 33,000  Level FlightAware Transoceanic
03:17PM 34.8482 -58.7463 231° Southwest 489 563 33,000  Level FlightAware Transoceanic
03:18PM 34.7640 -58.8728 231° Southwest 489 563 33,000  Level FlightAware Transoceanic
03:19PM 34.6796 -58.9991 231° Southwest 489 563 33,000  Level FlightAware Transoceanic
03:20PM 34.5951 -59.1251 231° Southwest 489 563 33,000  Level FlightAware Transoceanic
03:21PM 34.5105 -59.2508 231° Southwest 489 563 33,000  Level FlightAware Transoceanic
03:22PM 34.4257 -59.3763 231° Southwest 489 563 33,000  Level FlightAware Transoceanic
03:23PM 34.3408 -59.5016 231° Southwest 489 563 33,000  Level FlightAware Transoceanic
03:24PM 34.2558 -59.6265 230° Southwest 489 563 33,000  Level FlightAware Transoceanic
03:25PM 34.1707 -59.7513 230° Southwest 489 563 33,000  Level FlightAware Transoceanic
03:26PM 34.0854 -59.8758 230° Southwest 489 563 33,000  Level FlightAware Transoceanic
03:26PM 34.0000 -60.0000 252° West 502 578 33,000  Level New York Oceanic (ODAPS)
03:27PM 34.0000 -60.0000 252° West 489 563 33,000  Level FlightAware Transoceanic
03:27PM 33.9667 -60.1333 252° West 495 570 33,000  Level New York Oceanic (ODAPS)
03:28PM 33.9546 -60.1655 252° West 489 563 33,000  Level FlightAware Transoceanic
03:29PM 33.9090 -60.3309 252° West 489 563 33,000  Level FlightAware Transoceanic
03:30PM 33.8631 -60.4961 251° West 489 563 33,000  Level FlightAware Transoceanic
03:31PM 33.8170 -60.6610 251° West 489 563 33,000  Level FlightAware Transoceanic
03:32PM 33.7521 -60.8917 251° West 502 578 33,000  Level FlightAware Transoceanic
03:33PM 33.7127 -61.0347 251° West 495 570 33,000  Level FlightAware Transoceanic
03:34PM 33.6698 -61.1844 251° West 495 570 33,000  Level FlightAware Transoceanic
03:35PM 33.6267 -61.3339 251° West 495 570 33,000  Level FlightAware Transoceanic
03:35PM 33.5833 -61.4833 242° Southwest 499 574 33,000  Level New York Oceanic (ODAPS)
03:36PM 33.5833 -61.4833 242° Southwest 495 570 33,000  Level FlightAware Transoceanic
03:37PM 33.5193 -61.6301 242° Southwest 495 570 33,000  Level FlightAware Transoceanic
03:38PM 33.4552 -61.7766 242° Southwest 495 570 33,000  Level FlightAware Transoceanic
03:39PM 33.3908 -61.9228 242° Southwest 495 570 33,000  Level FlightAware Transoceanic
03:40PM 33.3263 -62.0689 242° Southwest 495 570 33,000  Level FlightAware Transoceanic
03:41PM 33.2616 -62.2148 242° Southwest 495 570 33,000  Level FlightAware Transoceanic
03:42PM 33.1967 -62.3604 242° Southwest 499 574 33,000  Level FlightAware Transoceanic
03:43PM 33.1317 -62.5058 242° Southwest 499 574 33,000  Level FlightAware Transoceanic
03:44PM 33.0665 -62.6510 242° Southwest 499 574 33,000  Level FlightAware Transoceanic
03:45PM 33.0011 -62.7960 242° Southwest 499 574 33,000 3,240 Level FlightAware Transoceanic
03:45PM 33.0667 -62.9000 240° Southwest 493 567 37,000  Climbing New York Oceanic (ODAPS)
03:46PM 32.9356 -62.9408 242° Southwest 499 574 33,000 -2,280 Descending FlightAware Transoceanic
03:47PM 32.8699 -63.0853 242° Southwest 499 574 33,000 2,580 Level FlightAware Transoceanic
03:47PM 32.9333 -63.2500 240° Southwest 494 568 37,000  Climbing New York Oceanic (ODAPS)
03:48PM 32.8040 -63.2297 241° Southwest 499 574 33,000 -2,760 Descending FlightAware Transoceanic
03:49PM 32.7380 -63.3738 241° Southwest 499 574 33,000  Level FlightAware Transoceanic
03:50PM 32.6718 -63.5177 241° Southwest 499 574 33,000 1,980 Level FlightAware Transoceanic
03:51PM 32.6706 -63.7231 240° Southwest 493 567 37,000 1,980 Climbing FlightAware Transoceanic
03:52PM 32.6040 -63.8596 240° Southwest 493 567 37,000  Level FlightAware Transoceanic
03:52PM 32.6667 -63.9167 239° Southwest 493 567 37,000  Level New York Oceanic (ODAPS)
03:53PM 32.5354 -64.0568 239° Southwest 494 568 37,000  Level FlightAware Transoceanic
03:54PM 32.4686 -64.1906 239° Southwest 494 568 37,000  Level FlightAware Transoceanic
03:55PM 32.4016 -64.3241 239° Southwest 494 568 37,000  Level FlightAware Transoceanic
03:56PM 32.3345 -64.4575 239° Southwest 494 568 37,000  Level FlightAware Transoceanic
03:57PM 32.2673 -64.5907 239° Southwest 494 568 37,000  Level FlightAware Transoceanic
03:57PM 32.3667 -64.6833 237° Southwest 492 566 37,000  Level New York Oceanic (ODAPS)
03:58PM 32.2507 -64.7193 238° Southwest 493 567 37,000  Level FlightAware Transoceanic
03:59PM 32.1809 -64.8523 238° Southwest 493 567 37,000  Level FlightAware Transoceanic
04:00PM 32.1109 -64.9852 238° Southwest 493 567 37,000  Level FlightAware Transoceanic
04:01PM 32.0408 -65.1178 238° Southwest 493 567 37,000  Level FlightAware Transoceanic
04:02PM 31.9706 -65.2503 238° Southwest 493 567 37,000  Level FlightAware Transoceanic
04:03PM 31.9340 -65.4544 236° Southwest 492 566 37,000  Level FlightAware Transoceanic
04:04PM 31.8614 -65.5822 236° Southwest 492 566 37,000  Level FlightAware Transoceanic
04:05PM 31.7887 -65.7098 236° Southwest 492 566 37,000  Level FlightAware Transoceanic
04:06PM 31.7159 -65.8372 236° Southwest 492 566 37,000  Level FlightAware Transoceanic
04:06PM 31.6667 -65.9167 236° Southwest 488 562 37,000  Level New York Oceanic (ODAPS)
04:07PM 31.6429 -65.9644 236° Southwest 492 566 37,000  Level FlightAware Transoceanic
04:07PM 31.5833 -66.0833 236° Southwest 478 550 37,000  Level New York Oceanic (ODAPS)
04:08PM 31.5699 -66.0914 236° Southwest 492 566 37,000  Level FlightAware Transoceanic
04:09PM 31.4967 -66.2182 236° Southwest 492 566 37,000  Level FlightAware Transoceanic
04:10PM 31.4233 -66.3448 236° Southwest 492 566 37,000  Level FlightAware Transoceanic
04:11PM 31.3499 -66.4712 236° Southwest 492 566 37,000  Level FlightAware Transoceanic
04:12PM 31.2479 -66.6424 236° Southwest 488 562 37,000  Level FlightAware Transoceanic
04:13PM 31.1777 -66.7627 236° Southwest 488 562 37,000  Level FlightAware Transoceanic
04:14PM 31.1355 -66.8453 235° Southwest 478 550 37,000  Level FlightAware Transoceanic
04:14PM 31.0833 -66.9500 235° Southwest 479 551 37,000  Level New York Oceanic (ODAPS)
04:15PM 31.0605 -66.9715 235° Southwest 478 550 37,000  Level FlightAware Transoceanic
04:16PM 30.9853 -67.0976 235° Southwest 478 550 37,000  Level FlightAware Transoceanic
04:17PM 30.9100 -67.2235 235° Southwest 478 550 37,000  Level FlightAware Transoceanic
04:18PM 30.8346 -67.3492 235° Southwest 478 550 37,000  Level FlightAware Transoceanic
04:19PM 30.7590 -67.4747 235° Southwest 478 550 37,000  Level FlightAware Transoceanic
04:19PM 30.6833 -67.6000 239° Southwest 458 527 37,000  Level New York Oceanic (ODAPS)
04:20PM 30.6833 -67.6000 239° Southwest 479 551 37,000  Level FlightAware Transoceanic
04:21PM 30.6191 -67.7240 239° Southwest 479 551 37,000  Level FlightAware Transoceanic
04:22PM 30.5547 -67.8478 239° Southwest 479 551 37,000  Level FlightAware Transoceanic
04:23PM 30.4902 -67.9715 239° Southwest 479 551 37,000  Level FlightAware Transoceanic
04:24PM 30.4256 -68.0950 239° Southwest 479 551 37,000  Level FlightAware Transoceanic
04:25PM 30.3609 -68.2183 239° Southwest 479 551 37,000  Level FlightAware Transoceanic
04:26PM 30.2961 -68.3415 239° Southwest 458 527 37,000  Level FlightAware Transoceanic
04:27PM 30.2311 -68.4645 239° Southwest 458 527 37,000  Level FlightAware Transoceanic
04:28PM 30.1661 -68.5873 238° Southwest 458 527 37,000  Level FlightAware Transoceanic
04:28PM 30.1333 -68.6833 238° Southwest 456 525 37,000  Level New York Oceanic (ODAPS)
04:29PM 30.1009 -68.7100 238° Southwest 458 527 37,000  Level FlightAware Transoceanic
04:30PM 30.0356 -68.8325 238° Southwest 458 527 37,000  Level FlightAware Transoceanic
04:31PM 29.9702 -68.9549 238° Southwest 458 527 37,000  Level FlightAware Transoceanic
04:32PM 29.9047 -69.0771 238° Southwest 458 527 37,000  Level FlightAware Transoceanic
04:33PM 29.8390 -69.1991 238° Southwest 458 527 37,000  Level FlightAware Transoceanic
04:34PM 29.7442 -69.4045 238° Southwest 456 525 37,000  Level FlightAware Transoceanic
04:35PM 29.6790 -69.5241 238° Southwest 456 525 37,000  Level FlightAware Transoceanic
04:36PM 29.6136 -69.6436 238° Southwest 456 525 37,000  Level FlightAware Transoceanic
04:37PM 29.5482 -69.7629 238° Southwest 456 525 37,000  Level FlightAware Transoceanic
04:38PM 29.4826 -69.8821 238° Southwest 456 525 37,000  Level FlightAware Transoceanic
04:39PM 29.4170 -70.0011 238° Southwest 456 525 37,000  Level FlightAware Transoceanic
04:40PM 29.3512 -70.1200 238° Southwest 456 525 37,000  Level FlightAware Transoceanic
04:41PM 29.2853 -70.2387 237° Southwest 456 525 37,000  Level FlightAware Transoceanic
04:42PM 29.2193 -70.3573 237° Southwest 456 525 37,000  Level FlightAware Transoceanic
04:43PM 29.1533 -70.4757 237° Southwest 456 525 37,000  Level FlightAware Transoceanic
04:44PM 29.0871 -70.5939 237° Southwest 456 525 37,000  Level FlightAware Transoceanic
04:45PM 29.0208 -70.7121 237° Southwest 456 525 37,000  Level FlightAware Transoceanic
04:46PM 28.9544 -70.8300 237° Southwest 456 525 37,000  Level FlightAware Transoceanic
04:47PM 28.8879 -70.9478 237° Southwest 456 525 37,000  Level FlightAware Transoceanic
04:47PM 28.8833 -71.0000 237° Southwest 430 495 37,000  Level New York Oceanic (ODAPS)
04:48PM 28.8213 -71.0655 237° Southwest 456 525 37,000  Level FlightAware Transoceanic
04:48PM 28.8333 -71.1000 237° Southwest 429 494 37,000  Level New York Oceanic (ODAPS)
04:49PM 28.7546 -71.1830 237° Southwest 456 525 37,000  Level FlightAware Transoceanic
04:50PM 28.6878 -71.3003 237° Southwest 456 525 37,000  Level FlightAware Transoceanic
04:51PM 28.6209 -71.4175 237° Southwest 456 525 37,000  Level FlightAware Transoceanic
04:52PM 28.5539 -71.5346 237° Southwest 456 525 37,000  Level FlightAware Transoceanic
04:53PM 28.4830 -71.6927 236° Southwest 430 495 37,000  Level FlightAware Transoceanic
04:54PM 28.4289 -71.7953 236° Southwest 429 494 37,000  Level FlightAware Transoceanic
04:55PM 28.3612 -71.9107 236° Southwest 429 494 37,000  Level FlightAware Transoceanic
04:55PM 28.3167 -71.9167 237° Southwest 446 513 37,000  Level New York Oceanic (ODAPS)
04:56PM 28.2933 -72.0259 236° Southwest 429 494 37,000  Level FlightAware Transoceanic
04:57PM 28.2254 -72.1410 236° Southwest 429 494 37,000  Level FlightAware Transoceanic
04:58PM 28.1573 -72.2559 236° Southwest 429 494 37,000  Level FlightAware Transoceanic
04:59PM 28.0892 -72.3707 236° Southwest 429 494 37,000  Level FlightAware Transoceanic
05:00PM 28.0210 -72.4853 236° Southwest 429 494 37,000  Level FlightAware Transoceanic
05:01PM 27.9527 -72.5998 236° Southwest 429 494 37,000  Level FlightAware Transoceanic
05:02PM 27.9010 -72.6381 237° Southwest 446 513 37,000  Level FlightAware Transoceanic
05:03PM 27.8313 -72.7578 237° Southwest 446 513 37,000  Level FlightAware Transoceanic
05:04PM 27.7616 -72.8773 237° Southwest 446 513 37,000  Level FlightAware Transoceanic
05:05PM 27.6917 -72.9967 237° Southwest 446 513 37,000  Level FlightAware Transoceanic
05:06PM 27.6218 -73.1160 236° Southwest 446 513 37,000  Level FlightAware Transoceanic
05:07PM 27.5517 -73.2350 236° Southwest 446 513 37,000  Level FlightAware Transoceanic
05:08PM 27.4815 -73.3540 236° Southwest 446 513 37,000  Level FlightAware Transoceanic
05:08PM 27.4500 -73.4000 237° Southwest 441 507 37,000  Level New York Oceanic (ODAPS)
05:09PM 27.4113 -73.4727 236° Southwest 446 513 37,000  Level FlightAware Transoceanic
05:10PM 27.3409 -73.5914 236° Southwest 446 513 37,000  Level FlightAware Transoceanic
05:11PM 27.2705 -73.7098 236° Southwest 446 513 37,000  Level FlightAware Transoceanic
05:12PM 27.1999 -73.8282 236° Southwest 446 513 37,000  Level FlightAware Transoceanic
05:13PM 27.1292 -73.9464 236° Southwest 446 513 37,000  Level FlightAware Transoceanic
05:14PM 27.0585 -74.0644 236° Southwest 446 513 37,000  Level FlightAware Transoceanic
05:15PM 26.9932 -74.1720 236° Southwest 441 507 37,000  Level FlightAware Transoceanic
05:16PM 26.9167 -74.3000 237° Southwest 441 507 37,000  Level FlightAware Transoceanic
05:16PM 26.8836 -74.3500 236° Southwest 460 529 37,000  Level Miami Center
05:17PM 26.8487 -74.4156 237° Southwest 441 507 37,000  Level FlightAware Transoceanic
05:17PM 26.8083 -74.4725 235° Southwest 465 535 37,000  Level Miami Center
05:18PM 26.7807 -74.5311 237° Southwest 441 507 37,000  Level FlightAware Transoceanic
05:18PM 26.7436 -74.5925 239° Southwest 465 535 37,000  Level Miami Center
05:19PM 26.7126 -74.6464 237° Southwest 441 507 37,000  Level FlightAware Transoceanic
05:19PM 26.6764 -74.7103 237° Southwest 465 535 37,000  Level Miami Center
05:20PM 26.6444 -74.7617 236° Southwest 441 507 37,000  Level FlightAware Transoceanic
05:20PM 26.6111 -74.8297 239° Southwest 459 528 37,000  Level Miami Center
05:21PM 26.5762 -74.8767 236° Southwest 441 507 37,000  Level FlightAware Transoceanic
05:21PM 26.5481 -74.9494 240° Southwest 459 528 37,000  Level Miami Center
05:22PM 26.5078 -74.9917 236° Southwest 441 507 37,000  Level FlightAware Transoceanic
05:22PM 26.4786 -75.0667 237° Southwest 459 528 37,000  Level Miami Center
05:23PM 26.4089 -75.1789 235° Southwest 459 528 37,000  Level Miami Center
05:24PM 26.3369 -75.2936 235° Southwest 459 528 37,000 120 Level Miami Center
05:25PM 26.2714 -75.4103 238° Southwest 459 528 37,300 480 Climbing Miami Center
05:26PM 26.2100 -75.5314 241° Southwest 459 528 38,000 300 Climbing Miami Center
05:27PM 26.1461 -75.6503 239° Southwest 454 522 38,000  Level Miami Center
05:28PM 26.0844 -75.7689 240° Southwest 448 516 38,000  Level Miami Center
05:29PM 26.0078 -75.8736 231° Southwest 448 516 38,000  Level Miami Center
05:30PM 25.9311 -75.9831 232° Southwest 448 516 38,000  Level Miami Center
05:31PM 25.8586 -76.0875 232° Southwest 442 509 38,000  Level Miami Center
05:32PM 25.7819 -76.1917 231° Southwest 442 509 38,000  Level Miami Center
05:33PM 25.7008 -76.2961 229° Southwest 442 509 38,000  Level Miami Center
05:34PM 25.6239 -76.3978 230° Southwest 442 509 38,000  Level Miami Center
05:35PM 25.5469 -76.5017 231° Southwest 447 514 38,000  Level Miami Center
05:36PM 25.4656 -76.6056 229° Southwest 447 514 38,000  Level Miami Center
05:37PM 25.3822 -76.7069 228° Southwest 452 520 38,000  Level Miami Center
05:38PM 25.2881 -76.7922 219° Southwest 442 509 38,000  Level Miami Center
05:39PM 25.1942 -76.8794 246° West 442 509 38,000 -420 Level Miami Center
05:40PM 25.2339 -76.9331 246° West  Level Estimated
05:40PM 25.1000 -76.9619 218° Southwest 442 509 37,200  Level Miami Center
05:41PM 25.0081 -77.0492 221° Southwest 447 514 36,200 -600 Descending Miami Center
05:42PM 24.9097 -77.1361 219° Southwest 447 514 36,000 -120 Descending Miami Center
05:43PM 24.8258 -77.2161 221° Southwest 452 520 36,000  Level Miami Center
05:44PM 24.7317 -77.3072 221° Southwest 452 520 36,000  Level Miami Center
05:45PM 24.6372 -77.3961 221° Southwest 452 520 36,000  Level Miami Center
05:46PM 24.5428 -77.4847 220° Southwest 452 520 36,000  Level Miami Center
05:47PM 24.4422 -77.5642 216° Southwest 452 520 36,000  Level Miami Center
05:48PM 24.3353 -77.6411 213° Southwest 457 526 36,000  Level Miami Center
05:49PM 24.2303 -77.7133 212° Southwest 457 526 36,000  Level Miami Center
05:50PM 24.1233 -77.7878 212° Southwest 457 526 36,000  Level Miami Center
05:51PM 24.0600 -77.8989 238° Southwest 437 503 36,000  Level Miami Center
05:52PM 24.0339 -78.0328 258° West 430 495 36,000  Level Miami Center
05:59PM 23.8340 -78.8670 258° West 446 513 36,000  Level FlightAware
05:59PM 23.8160 -78.9470 256° West 446 513 36,000  Level FlightAware
06:00PM 23.7970 -79.0380 257° West 446 513 36,000  Level FlightAware
06:01PM 23.7610 -79.1700 253° West 449 517 36,000  Level FlightAware
06:02PM 23.7470 -79.2700 261° West 450 518 36,000  Level FlightAware
06:02PM 23.7360 -79.3440 261° West 449 517 36,000  Level FlightAware
06:03PM 23.7220 -79.4370 261° West 449 517 36,000  Level FlightAware
06:04PM 23.7130 -79.5060 262° West 449 517 36,000  Level FlightAware
06:05PM 23.6930 -79.6400 261° West 443 510 36,000  Level FlightAware
06:05PM 23.6810 -79.7120 260° West 443 510 36,000  Level FlightAware
06:06PM 23.6620 -79.8490 261° West 441 507 36,000  Level FlightAware
06:07PM 23.6450 -79.9610 261° West 445 512 36,000  Level FlightAware
06:08PM 23.6290 -80.0660 261° West 447 514 36,000  Level FlightAware
06:08PM 23.6160 -80.1570 261° West 451 519 36,000 -300 Level FlightAware
06:09PM 23.6000 -80.2580 260° West 460 529 35,600 -660 Descending FlightAware
06:10PM 23.5860 -80.3560 261° West 467 537 35,100 -900 Descending FlightAware
06:10PM 23.5740 -80.4360 261° West 463 533 34,500 -1,020 Descending FlightAware
06:12PM 23.5320 -80.5920 254° West 456 525 33,300 -1,020 Descending FlightAware
06:12PM 23.4980 -80.6750 246° West 452 520 32,700 -960 Descending FlightAware
06:13PM 23.4620 -80.7640 246° West 451 519 32,000 -1,080 Descending FlightAware
06:14PM 23.4260 -80.8530 246° West 447 514 31,200 -2,280 Descending FlightAware
06:14PM 23.3890 -80.9430 246° West 459 528 28,800 -2,460 Descending FlightAware
06:15PM 23.3500 -81.0380 246° West 464 534 27,500 -2,880 Descending FlightAware
06:16PM 23.3030 -81.1530 246° West 451 519 24,300 -3,360 Descending FlightAware
06:17PM 23.2710 -81.2290 245° Southwest 447 514 22,600 -2,880 Descending FlightAware
06:17PM 23.2370 -81.3140 246° West 408 470 20,500 -2,820 Descending FlightAware
06:18PM 23.1940 -81.4160 245° Southwest 376 433 17,900 -1,560 Descending FlightAware
06:20PM 23.1500 -81.5270 247° West 366 421 17,100 -480 Descending FlightAware
06:20PM 23.1290 -81.5790 246° West 366 421 17,100  Level FlightAware
06:21PM 23.1090 -81.6320 248° West 366 421 17,100  Level FlightAware
06:22PM 23.0830 -81.6990 247° West 366 421 17,100  Level FlightAware
06:22PM 23.0620 -81.7500 246° West 366 421 17,100  Level FlightAware
06:23PM 23.0420 -81.8020 247° West 366 421 17,100 -5,580 Level FlightAware
06:23PM 22.9908 -81.9081 247° West 354 407 10,100 -4,680 Descending Miami Center
06:24PM 22.9547 -81.9900 244° Southwest 335 386 9,300 -1,020 Descending Miami Center
06:25PM 22.9269 -82.0700 249° West 314 361 8,100 -1,020 Descending Miami Center
06:26PM 22.9072 -82.1503 255° West 293 337 7,300 -780 Descending Miami Center
06:27PM 22.8833 -82.2372 253° West 276 318 6,600 -1,020 Descending Miami Center
06:28PM 22.8753 -82.2908 261° West 257 296 5,300 -1,140 Descending Miami Center
06:29PM 22.8603 -82.3603 257° West 244 281 4,400 -600 Descending Miami Center
06:30PM 22.8406 -82.4403 255° West 239 275 4,200 15,780 Descending Miami Center
06:31PM 22.8211 -82.5139 254° West 239 275 36,000 15,900 Climbing Miami Center
06:32PM 22.8039 -82.5850 255° West 239 275 36,000  Level Miami Center
06:33PM 22.7992 -82.6006 252° West 239 275 36,000  Level Miami Center
06:34PM 22.7992 -82.6006 129° Southeast 239 275 36,000  Level Miami Center
06:36PM 22.7992 -82.6006 129° Southeast 239 275 36,000  Level Miami Center
06:38PM 22.7992 -82.6006 129° Southeast 239 275 36,000  Level Miami Center
06:40PM 22.7992 -82.6006 129° Southeast 239 275 36,000  Level Miami Center
06:42PM 22.7992 -82.6006 129° Southeast 239 275 36,000  Level Miami Center
06:44PM 22.7992 -82.6006 129° Southeast 239 275 36,000  Level Miami Center
06:46PM 22.7992 -82.6006 129° Southeast 239 275 36,000  Level Miami Center
06:48PM 22.7992 -82.6006 129° Southeast 239 275 36,000  Level Miami Center
06:50PM 22.7992 -82.6006 129° Southeast 239 275 36,000  Level Miami Center
06:52PM 22.7992 -82.6006 129° Southeast 239 275 36,000  Level Miami Center
06:54PM 22.7992 -82.6006 129° Southeast 239 275 36,000  Level Miami Center
06:56PM 22.7992 -82.6006 129° Southeast 239 275 36,000  Level Miami Center
06:58PM 22.7992 -82.6006 129° Southeast 239 275 36,000  Level Miami Center
07:00PM 22.7992 -82.6006 129° Southeast 239 275 36,000  Level Miami Center
07:02PM 22.7992 -82.6006 129° Southeast 239 275 36,000  Level Miami Center
07:04PM 22.7992 -82.6006 129° Southeast 239 275 36,000  Level Miami Center
07:06PM 22.7992 -82.6006 129° Southeast 239 275 36,000  Level Miami Center
07:08PM 22.7992 -82.6006 129° Southeast 239 275 36,000  Level Miami Center
07:10PM 22.7992 -82.6006 129° Southeast 239 275 36,000  Level Miami Center
07:12PM 22.7992 -82.6006 129° Southeast 239 275 36,000  Level Miami Center
07:14PM 22.7992 -82.6006 129° Southeast 239 275 36,000  Level Miami Center
07:16PM 22.7992 -82.6006 129° Southeast 239 275 36,000  Level Miami Center
07:18PM 22.7992 -82.6006 129° Southeast 239 275 36,000  Level Miami Center
07:20PM 22.7992 -82.6006 129° Southeast 239 275 36,000  Level Miami Center
07:22PM 22.7992 -82.6006 129° Southeast 239 275 36,000  Level Miami Center
07:24PM 22.7992 -82.6006 129° Southeast 239 275 36,000  Level Miami Center
07:26PM 22.7992 -82.6006 129° Southeast 239 275 36,000  Level Miami Center
07:28PM 22.7992 -82.6006 129° Southeast 239 275 36,000  Level Miami Center
07:30PM 22.7992 -82.6006 129° Southeast 239 275 36,000  Level Miami Center
07:32PM 22.7992 -82.6006 129° Southeast 239 275 36,000  Level Miami Center
07:34PM 22.7992 -82.6006 129° Southeast 239 275 36,000  Level Miami Center
07:36PM 22.7992 -82.6006 129° Southeast 239 275 36,000  Level Miami Center
07:38PM 22.7992 -82.6006 129° Southeast 239 275 36,000  Level Miami Center
07:40PM 22.7992 -82.6006 129° Southeast 239 275 36,000  Level Miami Center
07:42PM 22.7992 -82.6006 129° Southeast 239 275 36,000  Level Miami Center
07:44PM 22.7992 -82.6006 129° Southeast 239 275 36,000  Level Miami Center
07:46PM 22.7992 -82.6006 129° Southeast 239 275 36,000  Level Miami Center
07:48PM 22.7992 -82.6006 129° Southeast 239 275 36,000  Level Miami Center
07:50PM 22.7992 -82.6006 129° Southeast 239 275 36,000  Level Miami Center
07:52PM 22.7992 -82.6006 129° Southeast 239 275 36,000  Level Miami Center
07:54PM 22.7992 -82.6006 129° Southeast 239 275 36,000  Level Miami Center
07:56PM 22.7992 -82.6006 129° Southeast 239 275 36,000  Level Miami Center
07:58PM 22.7992 -82.6006 129° Southeast 239 275 36,000  Level Miami Center
08:00PM 22.7992 -82.6006 129° Southeast 239 275 36,000  Level Miami Center
08:02PM 22.7992 -82.6006 129° Southeast 239 275 36,000  Level Miami Center
08:04PM 22.7992 -82.6006 129° Southeast 239 275 36,000  Level Miami Center
08:06PM 22.7992 -82.6006 129° Southeast 239 275 36,000  Level Miami Center
08:08PM 22.7992 -82.6006 129° Southeast 239 275 36,000  Level Miami Center
08:10PM 22.7992 -82.6006 129° Southeast 239 275 36,000  Level Miami Center
08:12PM 22.7992 -82.6006 129° Southeast 239 275 36,000  Level Miami Center
08:14PM 22.7992 -82.6006 129° Southeast 239 275 36,000  Level Miami Center
08:16PM 22.7992 -82.6006 129° Southeast 239 275 36,000  Level Miami Center
08:18PM 22.7992 -82.6006 129° Southeast 239 275 36,000  Level Miami Center
08:20PM 22.7992 -82.6006 129° Southeast 239 275 36,000  Level Miami Center
08:22PM 22.7992 -82.6006 129° Southeast 239 275 36,000  Level Miami Center
08:24PM 22.7992 -82.6006 129° Southeast 239 275 36,000  Level Miami Center
08:26PM 22.7992 -82.6006 129° Southeast 239 275 36,000  Level Miami Center
08:28PM 22.7992 -82.6006 129° Southeast 239 275 36,000  Level Miami Center
08:30PM 22.7992 -82.6006 129° Southeast 239 275 36,000  Level Miami Center
08:32PM 22.7992 -82.6006 129° Southeast 239 275 36,000  Level Miami Center